Location: Devargunta
(16.7631°N, 80.9077°E)
Time: 10:53:11
(UTC+00:00)

Delta 168 - Pass Details

Date: 19 January 2021
Orbit: 394 x 2047 km, 25.3° (Epoch: 28 February)

Event Time Altitude Azimuth Distance (km) Brightness Sun altitude
Rises 14:14:54 0° 282° (WNW) 2,285 7.0 -25.8°
Reaches altitude 10° 14:16:51 10° 275° (W) 1,476 5.9 -26.2°
Enters shadow 14:18:46 30° 252° (WSW) 811 4.2 -26.7°
